Weather History for KLKU - October, 2012

Change the Weather History Date:

Monday, October 15, 2012

  Actual Average (KCHO) Record (KCHO)
Temperature  
Mean Temperature 62 °F 56 °F  
Max Temperature 71 °F 68 °F 87 °F (1941)
Min Temperature 48 °F 44 °F 29 °F (2006)
Degree Days  
Heating Degree Days 3 9  
Month to date heating degree days 108  
Since 1 July heating degree days 166  
Cooling Degree Days 0 0  
Month to date cooling degree days 12  
Year to date cooling degree days 1033  
Growing Degree Days 12 (Base 50)    
Moisture  
Dew Point 58 °F    
Average Humidity 78    
Maximum Humidity 94    
Minimum Humidity 58    
Precipitation  
Precipitation 0.00 in 0.09 in 1.77 in (2014)
Month to date precipitation 1.61  
Year to date precipitation 34.23  
Sea Level Pressure  
Sea Level Pressure 29.80 in    
Wind  
Wind Speed 6 mph (SW)    
Max Wind Speed 13 mph    
Max Gust Speed 21 mph    
Visibility 10 miles    
Events      
T = Trace of Precipitation, MM = Missing Value Source: NWS Daily Summary

Daily Weather History Graph

Daily Weather History Graph

Search for Another Location

Airport or City:

Trip Planner

Search our weather history database for the weather conditions in past years. The results will help you decide how hot, cold, wet, or windy it might be!

Date:

Astronomy

Oct. 15, 2012 Rise Set
Actual Time 7:20 AM EDT 6:33 PM EDT
Civil Twilight 6:54 AM EDT 7:00 PM EDT
Nautical Twilight 6:23 AM EDT 7:30 PM EDT
Astronomical Twilight 5:53 AM EDT 8:01 PM EDT
Moon 7:28 AM EDT (10/15) 6:33 PM EDT (10/15)
Length of Visible Light 12h 05m
Length of Day
11h 12m
New Moon, 0% of the Moon is Illuminated
Oct 15
New Moon
Oct 21
First Quarter
Oct 29
Full
Nov 6
Last Quarter
Nov 13
New

Hourly Weather History & Observations

Time (EDT) Temp. Dew Point Humidity Pressure Visibility Wind Dir Wind Speed Gust Speed Precip Events Conditions
12:15 AM 66.2 °F 57.2 °F 73% 29.97 in 10.0 mi South 6.9 mph - N/A   Overcast
12:35 AM 66.2 °F 57.2 °F 73% 29.96 in 10.0 mi SSW 5.8 mph - N/A   Overcast
12:55 AM 66.2 °F 57.2 °F 73% 29.95 in 10.0 mi South 4.6 mph - N/A   Mostly Cloudy
1:15 AM 66.2 °F 57.2 °F 73% 29.94 in 10.0 mi SSW 5.8 mph - N/A   Mostly Cloudy
1:35 AM 66.2 °F 57.2 °F 73% 29.93 in 10.0 mi South 4.6 mph - N/A   Scattered Clouds
1:55 AM 66.2 °F 57.2 °F 73% 29.93 in 10.0 mi SW 3.5 mph - N/A   Clear
2:15 AM 64.4 °F 57.2 °F 77% 29.92 in 10.0 mi SSW 5.8 mph - N/A   Clear
2:35 AM 64.4 °F 57.2 °F 77% 29.91 in 10.0 mi South 6.9 mph - N/A   Scattered Clouds
2:55 AM 64.4 °F 57.2 °F 77% 29.90 in 10.0 mi SSW 5.8 mph - N/A   Mostly Cloudy
3:15 AM 64.4 °F 57.2 °F 77% 29.90 in 10.0 mi South 4.6 mph - N/A   Mostly Cloudy
3:35 AM 64.4 °F 57.2 °F 77% 29.88 in 10.0 mi South 6.9 mph - N/A   Mostly Cloudy
3:55 AM 64.4 °F 57.2 °F 77% 29.88 in 10.0 mi South 5.8 mph - N/A   Scattered Clouds
4:15 AM 64.4 °F 57.2 °F 77% 29.88 in 10.0 mi South 4.6 mph - N/A   Clear
4:35 AM 62.6 °F 57.2 °F 82% 29.87 in 10.0 mi South 4.6 mph - N/A   Scattered Clouds
4:55 AM 62.6 °F 57.2 °F 82% 29.86 in 10.0 mi South 4.6 mph - N/A   Scattered Clouds
5:15 AM 62.6 °F 57.2 °F 82% 29.85 in 10.0 mi South 4.6 mph - N/A   Clear
5:55 AM 62.6 °F 57.2 °F 82% 29.85 in 10.0 mi South 4.6 mph - N/A   Mostly Cloudy
6:15 AM 62.6 °F 57.2 °F 82% 29.84 in 10.0 mi South 4.6 mph - N/A   Scattered Clouds
6:55 AM 62.6 °F 57.2 °F 82% 29.83 in 10.0 mi South 4.6 mph - N/A   Clear
7:15 AM 62.6 °F 57.2 °F 82% 29.83 in 10.0 mi South 4.6 mph - N/A   Scattered Clouds
7:35 AM 62.6 °F 57.2 °F 82% 29.82 in 10.0 mi South 5.8 mph - N/A   Overcast
7:55 AM 64.4 °F 57.2 °F 77% 29.81 in 10.0 mi South 5.8 mph - N/A   Scattered Clouds
8:15 AM 64.4 °F 57.2 °F 77% 29.81 in 10.0 mi South 5.8 mph - N/A   Scattered Clouds
8:35 AM 64.4 °F 59.0 °F 83% 29.81 in 10.0 mi SW 3.5 mph - N/A   Overcast
8:55 AM 64.4 °F 59.0 °F 83% 29.80 in 10.0 mi South 3.5 mph - N/A   Mostly Cloudy
9:15 AM 66.2 °F 60.8 °F 83% 29.82 in 10.0 mi SW 5.8 mph - N/A   Mostly Cloudy
9:35 AM 66.2 °F 60.8 °F 83% 29.81 in 10.0 mi South 5.8 mph - N/A   Overcast
9:55 AM 66.2 °F 60.8 °F 83% 29.81 in 10.0 mi SSW 5.8 mph - N/A   Overcast
10:15 AM 66.2 °F 60.8 °F 83% 29.80 in 10.0 mi SSW 8.1 mph - N/A   Overcast
10:35 AM 66.2 °F 60.8 °F 83% 29.80 in 10.0 mi SSW 6.9 mph - N/A   Overcast
10:55 AM 66.2 °F 60.8 °F 83% 29.80 in 10.0 mi SSW 6.9 mph - N/A   Overcast
11:15 AM 69.8 °F 60.8 °F 73% 29.79 in 10.0 mi SSW 8.1 mph - N/A   Mostly Cloudy
11:35 AM 69.8 °F 60.8 °F 73% 29.78 in 10.0 mi SSW 10.4 mph 19.6 mph N/A   Scattered Clouds
11:55 AM 69.8 °F 60.8 °F 73% 29.78 in 10.0 mi SW 6.9 mph - N/A   Scattered Clouds
12:15 PM 68.0 °F 60.8 °F 78% 29.79 in 7.0 mi SW 6.9 mph - N/A   Mostly Cloudy
12:35 PM 66.2 °F 60.8 °F 83% 29.78 in 10.0 mi SW 4.6 mph - N/A   Mostly Cloudy
12:55 PM 64.4 °F 60.8 °F 88% 29.77 in 10.0 mi SSW 5.8 mph - N/A   Scattered Clouds
1:15 PM 66.2 °F 60.8 °F 83% 29.76 in 10.0 mi SW 9.2 mph - N/A   Clear
1:35 PM 66.2 °F 60.8 °F 83% 29.75 in 10.0 mi SW 12.7 mph 20.7 mph N/A   Mostly Cloudy
1:55 PM 66.2 °F 59.0 °F 78% 29.74 in 10.0 mi SW 5.8 mph - N/A   Overcast
2:15 PM 66.2 °F 59.0 °F 78% 29.74 in 10.0 mi WSW 8.1 mph - N/A   Overcast
2:35 PM 68.0 °F 60.8 °F 78% 29.73 in 10.0 mi SW 8.1 mph - N/A   Overcast
2:55 PM 66.2 °F 59.0 °F 78% 29.72 in 10.0 mi SW 8.1 mph - N/A   Overcast
3:15 PM 68.0 °F 60.8 °F 78% 29.71 in 10.0 mi SSW 4.6 mph - N/A   Overcast
3:35 PM 69.8 °F 60.8 °F 73% 29.70 in 10.0 mi SW 6.9 mph - N/A   Scattered Clouds
3:55 PM 69.8 °F 60.8 °F 73% 29.69 in 10.0 mi SSW 4.6 mph - N/A   Scattered Clouds
4:15 PM 69.8 °F 60.8 °F 73% 29.69 in 10.0 mi South 4.6 mph - N/A   Scattered Clouds
4:35 PM 69.8 °F 60.8 °F 73% 29.68 in 10.0 mi SSW 5.8 mph - N/A   Scattered Clouds
4:55 PM 71.6 °F 60.8 °F 69% 29.68 in 10.0 mi SSW 8.1 mph - N/A   Scattered Clouds
5:15 PM 71.6 °F 60.8 °F 69% 29.67 in 10.0 mi SSW 5.8 mph - N/A   Scattered Clouds
5:35 PM 69.8 °F 60.8 °F 73% 29.67 in 10.0 mi SSW 4.6 mph - N/A   Clear
5:55 PM 68.0 °F 60.8 °F 78% 29.67 in 10.0 mi Calm Calm - N/A   Clear
6:15 PM 66.2 °F 60.8 °F 83% 29.67 in 10.0 mi Calm Calm - N/A   Clear
6:35 PM 66.2 °F 60.8 °F 83% 29.68 in 10.0 mi Calm Calm - N/A   Scattered Clouds
6:55 PM 64.4 °F 60.8 °F 88% 29.69 in 10.0 mi Calm Calm - N/A   Scattered Clouds
7:15 PM 64.4 °F 60.8 °F 88% 29.70 in 10.0 mi West 3.5 mph - N/A   Overcast
7:35 PM 64.4 °F 60.8 °F 88% 29.70 in 10.0 mi WSW 4.6 mph - N/A   Mostly Cloudy
7:55 PM 62.6 °F 60.8 °F 94% 29.71 in 10.0 mi West 4.6 mph - N/A   Scattered Clouds
8:15 PM 64.4 °F 57.2 °F 77% 29.74 in 10.0 mi NNW 4.6 mph - N/A   Clear
8:35 PM 62.6 °F 55.4 °F 77% 29.75 in 10.0 mi NNW 5.8 mph - N/A   Clear
8:55 PM 60.8 °F 53.6 °F 77% 29.77 in 10.0 mi NW 8.1 mph - N/A   Clear
9:15 PM 60.8 °F 53.6 °F 77% 29.78 in 10.0 mi NNW 8.1 mph - N/A   Clear
9:35 PM 59.0 °F 53.6 °F 82% 29.78 in 10.0 mi Calm Calm - N/A   Clear
9:55 PM 57.2 °F 51.8 °F 82% 29.79 in 10.0 mi WNW 3.5 mph - N/A   Clear
10:15 PM 55.4 °F 51.8 °F 88% 29.80 in 10.0 mi WNW 4.6 mph - N/A   Clear
10:35 PM 55.4 °F 46.4 °F 72% 29.81 in 10.0 mi WNW 5.8 mph - N/A   Clear
10:55 PM 55.4 °F 42.8 °F 63% 29.81 in 10.0 mi WNW 8.1 mph - N/A   Clear
11:15 PM 55.4 °F 41.0 °F 58% 29.82 in 10.0 mi WNW 5.8 mph - N/A   Clear
11:35 PM 53.6 °F 42.8 °F 67% 29.82 in 10.0 mi WNW 3.5 mph - N/A   Clear
11:55 PM 48.2 °F 42.8 °F 82% 29.82 in 10.0 mi Calm Calm - N/A   Clear